DLH6Z LFPG-EDDF

Flight info

Callsign DLH6Z
Flight time N/A
Altitude 23000
Route RANUX DCT VALEK DCT LIPNI UN858 LIMGO Z111 RAMOB IMCOM1D
Aircraft A320/M-SDE3FGHIRWY/LB1

Departure

Time 2026-05-08 22:01
Airport Charles de Gaulle International Airport (LFPG)

Arrival

Time N/A
Airport Frankfurt Main Airport (EDDF)
Time Latitude Longitude Altitude Speed Heading
2026-05-08 21:31 49.01618 2.53846 360 ft 0 kts 169°
2026-05-08 21:47 49.01619 2.53845 354 ft 1 kts 169°
2026-05-08 21:47 49.01635 2.53841 364 ft 3 kts 166°
2026-05-08 21:47 49.01654 2.53833 364 ft 3 kts 162°
2026-05-08 21:48 49.01673 2.53823 363 ft 3 kts 156°
2026-05-08 21:48 49.01691 2.53809 360 ft 3 kts 146°
2026-05-08 21:48 49.01706 2.53791 361 ft 3 kts 116°
2026-05-08 21:48 49.01710 2.53773 357 ft 2 kts 54°
2026-05-08 21:49 49.01706 2.53765 360 ft 0 kts 48°
2026-05-08 21:50 49.01706 2.53766 361 ft 0 kts 48°
2026-05-08 21:50 49.01710 2.53772 361 ft 1 kts 48°
2026-05-08 21:50 49.01714 2.53779 358 ft 0 kts 48°
2026-05-08 21:52 49.01725 2.53798 360 ft 12 kts 48°
2026-05-08 21:52 49.01741 2.53829 359 ft 0 kts 52°
2026-05-08 21:53 49.01762 2.53871 355 ft 12 kts 57°
2026-05-08 21:53 49.01779 2.53919 357 ft 0 kts 62°
2026-05-08 21:53 49.01780 2.53925 356 ft 1 kts 63°
2026-05-08 21:53 49.01796 2.53984 357 ft 10 kts 72°
2026-05-08 21:54 49.01826 2.54111 361 ft 14 kts 46°
2026-05-08 21:54 49.01891 2.54043 361 ft 17 kts 282°
2026-05-08 21:54 49.01884 2.53845 359 ft 21 kts 264°
2026-05-08 21:54 49.01871 2.53599 355 ft 26 kts 265°
2026-05-08 21:55 49.01857 2.53300 355 ft 30 kts 263°
2026-05-08 21:55 49.01841 2.52962 355 ft 34 kts 265°
2026-05-08 21:55 49.01830 2.52755 362 ft 4 kts 265°
2026-05-08 21:56 49.01824 2.52644 355 ft 6 kts 265°
2026-05-08 21:56 49.01818 2.52548 355 ft 19 kts 263°
2026-05-08 21:56 49.01850 2.52364 360 ft 20 kts 330°
2026-05-08 21:56 49.01897 2.52241 358 ft 0 kts 247°
2026-05-08 21:57 49.01897 2.52240 358 ft 0 kts 247°
2026-05-08 21:57 49.01896 2.52238 357 ft 0 kts 247°
2026-05-08 21:57 49.01892 2.52180 355 ft 17 kts 276°
2026-05-08 21:57 49.01960 2.52107 356 ft 0 kts 10°
2026-05-08 21:58 49.01961 2.52107 355 ft 1 kts 11°
2026-05-08 21:58 49.02020 2.52108 357 ft 15 kts 356°
2026-05-08 21:58 49.02104 2.52144 358 ft 13 kts 44°
2026-05-08 21:59 49.02114 2.52207 353 ft 0 kts 90°
2026-05-08 22:01 49.02140 2.52725 356 ft 100 kts 85°
2026-05-08 22:01 49.02224 2.54215 361 ft 178 kts 83°
2026-05-08 22:01 49.02314 2.56193 1187 ft 190 kts 85°
2026-05-08 22:01 49.02412 2.58314 1905 ft 213 kts 85°
2026-05-08 22:02 49.02538 2.60683 2432 ft 237 kts 85°
2026-05-08 22:02 49.02680 2.63275 3403 ft 250 kts 85°
2026-05-08 22:02 49.02826 2.65946 4742 ft 257 kts 86°
2026-05-08 22:03 49.02912 2.67553 5410 ft 266 kts 86°
2026-05-08 22:03 49.03060 2.70390 6684 ft 273 kts 86°
2026-05-08 22:03 49.03214 2.73317 7843 ft 282 kts 86°
2026-05-08 22:04 49.03368 2.76330 9076 ft 290 kts 86°
2026-05-08 22:04 49.03524 2.79436 10241 ft 300 kts 86°
2026-05-08 22:04 49.03684 2.82735 10891 ft 325 kts 86°
2026-05-08 22:04 49.03852 2.86315 11488 ft 350 kts 86°
2026-05-08 22:05 49.04002 2.89524 12206 ft 361 kts 86°
2026-05-08 22:05 49.04120 2.92070 12885 ft 366 kts 86°
2026-05-08 22:05 49.04320 2.95834 13924 ft 371 kts 85°
2026-05-08 22:05 49.04591 2.99779 14882 ft 377 kts 84°
2026-05-08 22:06 49.04902 3.03770 15837 ft 382 kts 83°
2026-05-08 22:06 49.05227 3.07822 16779 ft 387 kts 83°
2026-05-08 22:06 49.05549 3.11915 17740 ft 391 kts 83°
2026-05-08 22:06 49.05865 3.16057 18644 ft 395 kts 83°
2026-05-08 22:07 49.06173 3.20241 19424 ft 400 kts 83°
2026-05-08 22:07 49.06479 3.24482 20193 ft 404 kts 82°
2026-05-08 22:07 49.07068 3.28680 20925 ft 408 kts 73°
2026-05-08 22:07 49.07854 3.32859 21684 ft 412 kts 72°
2026-05-08 22:08 49.08657 3.37076 22435 ft 416 kts 72°
2026-05-08 22:08 49.09474 3.41348 23176 ft 421 kts 71°
2026-05-08 22:08 49.10285 3.45607 23810 ft 425 kts 71°
2026-05-08 22:08 49.11107 3.49955 24017 ft 426 kts 71°
2026-05-08 22:09 49.11933 3.54343 24092 ft 437 kts 71°
2026-05-08 22:09 49.12779 3.58849 24093 ft 443 kts 71°
2026-05-08 22:09 49.13625 3.63381 24093 ft 444 kts 71°
2026-05-08 22:09 49.14472 3.67922 24092 ft 445 kts 71°
2026-05-08 22:10 49.15318 3.72465 24095 ft 445 kts 71°
2026-05-08 22:10 49.16163 3.77013 24091 ft 445 kts 71°
2026-05-08 22:10 49.17006 3.81563 24089 ft 445 kts 71°
2026-05-08 22:10 49.17846 3.86110 24089 ft 445 kts 71°
2026-05-08 22:11 49.18686 3.90674 24086 ft 445 kts 71°
2026-05-08 22:11 49.19522 3.95230 24086 ft 445 kts 71°
2026-05-08 22:11 49.20356 3.99784 24084 ft 445 kts 71°
2026-05-08 22:11 49.21181 4.04293 24082 ft 445 kts 71°
2026-05-08 22:12 49.22014 4.08851 24092 ft 445 kts 71°
2026-05-08 22:12 49.22842 4.13411 24093 ft 445 kts 71°
2026-05-08 22:12 49.23667 4.17966 24106 ft 444 kts 71°
2026-05-08 22:12 49.24493 4.22533 24113 ft 444 kts 71°
2026-05-08 22:13 49.25315 4.27079 24113 ft 443 kts 71°
2026-05-08 22:13 49.26134 4.31627 24113 ft 443 kts 72°
2026-05-08 22:13 49.26949 4.36162 24115 ft 442 kts 72°
2026-05-08 22:13 49.27766 4.40713 24114 ft 442 kts 72°
2026-05-08 22:14 49.28580 4.45247 24121 ft 442 kts 72°
2026-05-08 22:14 49.29382 4.49728 24119 ft 441 kts 72°
2026-05-08 22:14 49.30193 4.54266 24116 ft 441 kts 72°
2026-05-08 22:14 49.30999 4.58800 24113 ft 441 kts 72°
2026-05-08 22:15 49.31802 4.63336 24113 ft 441 kts 72°
2026-05-08 22:15 49.32599 4.67869 24113 ft 440 kts 72°
2026-05-08 22:15 49.33126 4.70871 24109 ft 440 kts 72°
2026-05-08 22:15 49.34190 4.76949 24108 ft 440 kts 72°
2026-05-08 22:16 49.34714 4.79944 24107 ft 440 kts 72°
2026-05-08 22:16 49.35767 4.85960 24108 ft 440 kts 72°
2026-05-08 22:16 49.36561 4.90497 24121 ft 440 kts 72°
2026-05-08 22:16 49.37351 4.95033 24123 ft 440 kts 72°
2026-05-08 22:17 49.37884 4.98096 24118 ft 440 kts 72°
2026-05-08 22:17 49.38673 5.02628 24116 ft 440 kts 72°
2026-05-08 22:17 49.39460 5.07155 24116 ft 439 kts 72°
2026-05-08 22:17 49.40243 5.11685 24113 ft 439 kts 72°
2026-05-08 22:18 49.41022 5.16221 24126 ft 439 kts 72°
2026-05-08 22:18 49.41798 5.20757 24123 ft 439 kts 73°
2026-05-08 22:18 49.42569 5.25287 24128 ft 438 kts 73°
2026-05-08 22:18 49.43337 5.29808 24124 ft 438 kts 73°
2026-05-08 22:19 49.44106 5.34343 24126 ft 437 kts 73°
2026-05-08 22:19 49.44871 5.38862 24134 ft 437 kts 74°
2026-05-08 22:19 49.45636 5.43383 24129 ft 437 kts 74°
2026-05-08 22:19 49.46394 5.47857 24126 ft 437 kts 74°
2026-05-08 22:20 49.47158 5.52378 24129 ft 437 kts 74°
2026-05-08 22:20 49.47923 5.56913 24125 ft 437 kts 74°
2026-05-08 22:20 49.48682 5.61435 24131 ft 437 kts 74°
2026-05-08 22:20 49.49434 5.65958 24131 ft 437 kts 74°
2026-05-08 22:21 49.50181 5.70485 24121 ft 436 kts 74°
2026-05-08 22:21 49.50927 5.75012 24118 ft 436 kts 74°
2026-05-08 22:21 49.51768 5.79487 24120 ft 435 kts 69°
2026-05-08 22:21 49.52830 5.83848 24128 ft 435 kts 68°
2026-05-08 22:22 49.53896 5.88217 24121 ft 436 kts 68°
2026-05-08 22:22 49.54975 5.92590 24117 ft 436 kts 68°
2026-05-08 22:22 49.56061 5.96957 24119 ft 437 kts 68°
2026-05-08 22:22 49.57145 6.01325 24120 ft 437 kts 68°
2026-05-08 22:23 49.58229 6.05709 24124 ft 437 kts 68°
2026-05-08 22:23 49.59308 6.10091 24127 ft 437 kts 68°
2026-05-08 22:23 49.60387 6.14479 24129 ft 437 kts 68°
2026-05-08 22:23 49.61446 6.18812 24131 ft 437 kts 68°
2026-05-08 22:24 49.62515 6.23201 24136 ft 437 kts 68°
2026-05-08 22:24 49.63642 6.27626 24136 ft 437 kts 64°
2026-05-08 22:24 49.65070 6.31679 24135 ft 436 kts 58°
2026-05-08 22:24 49.66632 6.35707 24128 ft 437 kts 58°
2026-05-08 22:25 49.68190 6.39737 24120 ft 437 kts 58°
2026-05-08 22:25 49.69747 6.43772 24116 ft 437 kts 58°
2026-05-08 22:25 49.71291 6.47788 24112 ft 438 kts 59°
2026-05-08 22:25 49.72865 6.51816 24108 ft 438 kts 56°
2026-05-08 22:26 49.74673 6.55605 24105 ft 437 kts 52°
2026-05-08 22:26 49.76520 6.59346 24094 ft 438 kts 52°
2026-05-08 22:26 49.78371 6.63098 24093 ft 438 kts 52°
2026-05-08 22:26 49.80214 6.66843 24096 ft 438 kts 52°
2026-05-08 22:27 49.82055 6.70599 24098 ft 438 kts 52°
2026-05-08 22:27 49.83896 6.74362 24100 ft 438 kts 52°
2026-05-08 22:27 49.85731 6.78121 24101 ft 438 kts 52°
2026-05-08 22:27 49.87567 6.81881 24103 ft 438 kts 52°
2026-05-08 22:28 49.89405 6.85645 24097 ft 438 kts 52°
2026-05-08 22:28 49.91244 6.89414 24092 ft 439 kts 52°
2026-05-08 22:28 49.93091 6.93202 24106 ft 439 kts 52°
2026-05-08 22:28 49.94932 6.96986 24107 ft 439 kts 52°
2026-05-08 22:29 49.96780 7.00790 24121 ft 440 kts 52°
2026-05-08 22:29 49.98621 7.04584 24126 ft 440 kts 52°
2026-05-08 22:29 50.00438 7.08337 24129 ft 440 kts 52°
2026-05-08 22:29 50.02113 7.12264 24134 ft 429 kts 60°
2026-05-08 22:30 50.03343 7.16445 24139 ft 424 kts 70°
2026-05-08 22:30 50.04150 7.20860 24139 ft 422 kts 77°
2026-05-08 22:30 50.04803 7.25307 24139 ft 422 kts 77°
2026-05-08 22:30 50.05341 7.28951 24138 ft 422 kts 77°
2026-05-08 22:31 50.06002 7.33410 24138 ft 422 kts 77°
2026-05-08 22:31 50.06655 7.37807 24139 ft 423 kts 77°
2026-05-08 22:31 50.07319 7.42269 24140 ft 423 kts 77°
2026-05-08 22:31 50.07832 7.46779 24140 ft 423 kts 87°
2026-05-08 22:32 50.07602 7.51324 24144 ft 422 kts 103°
2026-05-08 22:32 50.06814 7.55727 24145 ft 422 kts 107°
2026-05-08 22:32 50.05983 7.60120 24144 ft 423 kts 107°
2026-05-08 22:32 50.05141 7.64527 23354 ft 426 kts 107°
2026-05-08 22:33 50.04283 7.69006 21788 ft 436 kts 107°
2026-05-08 22:33 50.03410 7.73565 20319 ft 444 kts 107°
2026-05-08 22:33 50.02530 7.78160 19215 ft 442 kts 107°
2026-05-08 22:33 50.01654 7.82736 18218 ft 438 kts 107°
2026-05-08 22:34 50.00790 7.87261 17201 ft 433 kts 107°
2026-05-08 22:34 50.00114 7.91788 16271 ft 428 kts 97°
2026-05-08 22:34 50.00104 7.96359 15502 ft 420 kts 84°
2026-05-08 22:34 50.00748 8.00631 15204 ft 403 kts 72°
2026-05-08 22:35 50.01701 8.04734 14018 ft 407 kts 70°
2026-05-08 22:35 50.02698 8.08870 12880 ft 408 kts 70°
2026-05-08 22:35 50.03705 8.12972 11903 ft 404 kts 69°
2026-05-08 22:35 50.04707 8.17033 11204 ft 394 kts 69°
2026-05-08 22:36 50.05657 8.20887 11065 ft 370 kts 69°
2026-05-08 22:36 50.06549 8.24527 10945 ft 348 kts 69°
2026-05-08 22:36 50.07379 8.27950 10805 ft 330 kts 69°
2026-05-08 22:36 50.08166 8.31213 10698 ft 314 kts 70°
2026-05-08 22:37 50.08915 8.34340 10554 ft 301 kts 70°
2026-05-08 22:37 50.09656 8.37430 9764 ft 310 kts 69°
2026-05-08 22:37 50.10433 8.40657 8752 ft 325 kts 69°
2026-05-08 22:37 50.11211 8.43894 8302 ft 318 kts 69°
2026-05-08 22:38 50.11976 8.47083 8037 ft 304 kts 69°
2026-05-08 22:38 50.12710 8.50150 7551 ft 302 kts 69°
2026-05-08 22:38 50.13423 8.53130 7426 ft 285 kts 69°
2026-05-08 22:38 50.14096 8.55953 7302 ft 271 kts 69°
2026-05-08 22:39 50.14459 8.57465 7231 ft 262 kts 69°
2026-05-08 22:39 50.14975 8.59606 7131 ft 251 kts 69°
2026-05-08 22:39 50.15567 8.62100 7007 ft 239 kts 69°
2026-05-08 22:40 50.16129 8.64480 6878 ft 228 kts 69°
2026-05-08 22:40 50.16485 8.65996 6736 ft 225 kts 69°
2026-05-08 22:40 50.16769 8.67194 6587 ft 224 kts 69°
2026-05-08 22:40 50.17053 8.68359 6447 ft 223 kts 68°
2026-05-08 22:41 50.17522 8.70295 6192 ft 221 kts 69°
2026-05-08 22:41 50.17967 8.72172 5970 ft 220 kts 69°
2026-05-08 22:41 50.18468 8.74297 5680 ft 218 kts 69°
2026-05-08 22:41 50.18991 8.76515 5396 ft 217 kts 69°
2026-05-08 22:42 50.19508 8.78712 5198 ft 214 kts 70°
2026-05-08 22:42 50.20018 8.80886 5142 ft 213 kts 70°
2026-05-08 22:42 50.20531 8.83066 5141 ft 214 kts 70°
2026-05-08 22:42 50.21041 8.85241 5123 ft 213 kts 70°
2026-05-08 22:43 50.21550 8.87413 4851 ft 212 kts 70°
2026-05-08 22:43 50.21953 8.89131 4610 ft 210 kts 70°
2026-05-08 22:43 50.22455 8.91270 4317 ft 209 kts 70°
2026-05-08 22:43 50.22971 8.93478 3618 ft 225 kts 71°
2026-05-08 22:44 50.23520 8.95873 2841 ft 241 kts 74°
2026-05-08 22:44 50.23634 8.98414 2593 ft 229 kts 101°
2026-05-08 22:44 50.23090 9.00538 2797 ft 200 kts 123°
2026-05-08 22:44 50.22132 9.02045 3030 ft 194 kts 145°
2026-05-08 22:45 50.20913 9.02839 3093 ft 186 kts 166°
2026-05-08 22:45 50.19632 9.02849 2670 ft 185 kts 189°
2026-05-08 22:45 50.18415 9.02073 2650 ft 194 kts 210°
2026-05-08 22:45 50.17465 9.00703 2645 ft 175 kts 225°
2026-05-08 22:46 50.16672 8.99382 2646 ft 165 kts 223°
2026-05-08 22:46 50.15893 8.98109 2644 ft 160 kts 223°
2026-05-08 22:46 50.15128 8.96858 2646 ft 159 kts 224°
2026-05-08 22:46 50.14533 8.95396 2644 ft 162 kts 246°
2026-05-08 22:47 50.14150 8.93746 2648 ft 162 kts 248°
2026-05-08 22:47 50.13765 8.92106 2645 ft 161 kts 247°
2026-05-08 22:47 50.13381 8.90473 2643 ft 160 kts 247°
2026-05-08 22:47 50.13000 8.88856 2644 ft 158 kts 247°
2026-05-08 22:48 50.12623 8.87255 2643 ft 157 kts 247°
2026-05-08 22:48 50.12245 8.85652 2541 ft 157 kts 248°
2026-05-08 22:48 50.11869 8.84059 2447 ft 156 kts 247°
2026-05-08 22:48 50.11491 8.82474 2393 ft 155 kts 247°
2026-05-08 22:49 50.11121 8.80922 2193 ft 152 kts 248°
2026-05-08 22:49 50.10375 8.77768 2235 ft 157 kts 248°
2026-05-08 22:49 50.09998 8.76175 2236 ft 156 kts 248°
2026-05-08 22:50 50.09621 8.74581 2238 ft 157 kts 248°
2026-05-08 22:50 50.09248 8.73006 2238 ft 156 kts 247°
2026-05-08 22:50 50.08871 8.71413 2211 ft 154 kts 247°
2026-05-08 22:50 50.08498 8.69837 1958 ft 154 kts 246°
2026-05-08 22:51 50.08123 8.68258 1904 ft 157 kts 247°
2026-05-08 22:51 50.07744 8.66658 1841 ft 158 kts 247°
2026-05-08 22:51 50.07361 8.65046 1763 ft 158 kts 247°
2026-05-08 22:51 50.06979 8.63440 1696 ft 157 kts 247°
2026-05-08 22:52 50.06605 8.61863 1490 ft 154 kts 248°
2026-05-08 22:52 50.06230 8.60290 1387 ft 154 kts 248°
2026-05-08 22:52 50.05861 8.58741 1105 ft 151 kts 250°
2026-05-08 22:52 50.05511 8.57285 920 ft 136 kts 252°
2026-05-08 22:53 50.05175 8.55899 732 ft 140 kts 251°
2026-05-08 22:53 50.04829 8.54495 598 ft 137 kts 252°
2026-05-08 22:53 50.04515 8.53107 416 ft 136 kts 254°
2026-05-08 22:53 50.04191 8.51754 362 ft 136 kts 251°
2026-05-08 22:54 50.03822 8.50145 871 ft 176 kts 252°
2026-05-08 22:54 50.03593 8.48271 1749 ft 174 kts 280°
2026-05-08 22:54 50.03803 8.46393 2658 ft 186 kts 291°
2026-05-08 22:54 50.04820 8.45074 3317 ft 195 kts 333°
2026-05-08 22:55 50.05991 8.44101 4324 ft 184 kts 331°
2026-05-08 22:55 50.07042 8.43041 5407 ft 181 kts 326°
2026-05-08 22:55 50.08303 8.42484 6016 ft 199 kts
2026-05-08 22:55 50.09492 8.43520 6811 ft 204 kts 50°
2026-05-08 22:56 50.09957 8.45585 7593 ft 205 kts 84°
2026-05-08 22:56 50.10061 8.47731 8181 ft 185 kts 84°
2026-05-08 22:56 50.10203 8.49600 7892 ft 171 kts 82°
2026-05-08 22:56 50.10373 8.51463 7265 ft 172 kts 81°
2026-05-08 22:57 50.10550 8.53303 6681 ft 171 kts 81°
2026-05-08 22:57 50.10728 8.55096 6076 ft 169 kts 81°
2026-05-08 22:57 50.10903 8.56889 5483 ft 166 kts 81°
2026-05-08 22:57 50.11079 8.58670 4907 ft 162 kts 81°
2026-05-08 22:58 50.11249 8.60364 4332 ft 158 kts 82°
2026-05-08 22:58 50.11414 8.62032 3779 ft 154 kts 82°
2026-05-08 22:58 50.11521 8.63140 3398 ft 152 kts 82°
2026-05-08 22:58 50.11732 8.65280 2641 ft 149 kts 83°
2026-05-08 22:59 50.11838 8.66349 2275 ft 147 kts 83°
2026-05-08 22:59 50.11991 8.67907 2166 ft 146 kts 83°
2026-05-08 22:59 50.12145 8.69481 2167 ft 147 kts 83°
2026-05-08 22:59 50.12295 8.71014 1916 ft 140 kts 83°
2026-05-08 23:00 50.12443 8.72512 1739 ft 142 kts 83°
2026-05-08 23:00 50.12592 8.74038 1753 ft 146 kts 83°
2026-05-08 23:00 50.12747 8.75635 1758 ft 147 kts 82°
2026-05-08 23:00 50.12899 8.77192 1760 ft 147 kts 83°
2026-05-08 23:01 50.13051 8.78768 1765 ft 147 kts 82°
2026-05-08 23:01 50.13206 8.80364 1761 ft 147 kts 82°
2026-05-08 23:01 50.13355 8.81923 1759 ft 147 kts 83°
2026-05-08 23:01 50.13506 8.83504 1760 ft 147 kts 83°
2026-05-08 23:02 50.13655 8.85084 1760 ft 147 kts 83°
2026-05-08 23:02 50.13805 8.86665 1759 ft 147 kts 83°
2026-05-08 23:02 50.13955 8.88243 1758 ft 147 kts 83°
2026-05-08 23:02 50.13715 8.89730 1739 ft 149 kts 131°
2026-05-08 23:03 50.12728 8.90136 1754 ft 158 kts 191°
2026-05-08 23:03 50.11952 8.88961 1764 ft 164 kts 247°
2026-05-08 23:03 50.11687 8.87232 1774 ft 164 kts 258°
2026-05-08 23:03 50.11487 8.85485 1766 ft 163 kts 259°
2026-05-08 23:04 50.11322 8.83769 1761 ft 161 kts 263°
2026-05-08 23:04 50.11245 8.82206 2009 ft 119 kts 259°
2026-05-08 23:04 50.11194 8.81148 1312 ft 82 kts 246°
2026-05-08 23:04 50.11090 8.80737 361 ft 0 kts 242°